Weather Roundup
Issued by NWS Chicago, IL

Home | Current Version | Previous Version | Text Only | Print | Product List | Glossary On
Versions: 1 2 3 4 5 6 7 8 9 10 11 12 13 14 15 16 17 18 19 20 21 22 23 24 25 26 27 28 29 30 31 32 33 34 35 36 37 38 39 40 41 42 43 44 45 46 47 48 49 50
000
NZUS59 KLOT 020210
HRRLOT

CHICAGO AREA WEATHER ROUNDUP
NATIONAL WEATHER SERVICE CHICAGO/ROMEOVILLE IL
800 PM CST SUN MAR 01 2015

NOTE: "FAIR" INDICATES FEW OR NO CLOUDS BELOW 12,000 FEET WITH NO
SIGNIFICANT WEATHER AND/OR OBSTRUCTIONS TO VISIBILITY.

* THESE STATIONS ARE NOT UNDER NWS QUALITY CONTROL. THEY ALSO MAY NOT
  REPORT WEATHER SUCH AS PRECIPITATION OR FOG.

ILZ005-006-012>014-019>023-020300-
NORTHEAST ILLINOIS

CITY           SKY/WX    TMP DP  RH WIND       PRES   REMARKS
OHARE          CLEAR     20  13  74 W8        30.28S WCI  10
MIDWAY         CLEAR     22  14  71 W9        30.30S WCI  12
AURORA         CLEAR     18  11  74 SW10      30.31S WCI   6
LANSING*       CLEAR     19  14  79 W8        30.32R WCI   9
JOLIET*        PTCLDY    18  12  77 W5        30.33S WCI  11
WAUKEGAN       CLEAR     20  15  81 SW7       30.25S WCI  11
DUPAGE AIRPORT CLEAR     18  12  77 SW12      30.28F WCI   5
WHEELING       CLEAR     21  14  74 W8        30.30R WCI  11
KANKAKEE*      PTCLDY    12  10  92 W6        30.35R WCI   2
MORRIS*        PTCLDY    15  11  85 W8        30.33S WCI   3
LEWIS AIRPORT* PTCLDY    18  13  80 W10       30.31F WCI   6
NORTHERLY IS     N/A     22  15  75 W10         N/A  WCI  11
$$

WIZ051-052-058>065-066-070>072-020300-
SOUTHEAST WISCONSIN

CITY           SKY/WX    TMP DP  RH WIND       PRES   REMARKS
MILWAUKEE      CLEAR     23  13  65 SW10      30.23R WCI  12
KENOSHA*       CLEAR     20  13  74 SW14      30.24R WCI   7
RACINE*        CLEAR     21  13  71 SW10      30.24F WCI  10
BURLINGTON     CLEAR     17  13  82 SW10      30.25R WCI   5
WAUKESHA       PTCLDY    21  14  73 SW12      30.24R WCI   9
WEST BEND      PTCLDY    25  14  63 W12G18    30.20R WCI  14
$$

INZ001>003-010>013-019-020-020300-
NORTHWEST INDIANA

CITY           SKY/WX    TMP DP  RH WIND       PRES   REMARKS
GARY*          CLEAR     23  12  63 W12G23    30.32R WCI  12
MICHIGAN CITY* NOT AVBL
RENSSELAER*    NOT AVBL
VALPARAISO     CLEAR     18  13  80 W12       30.30S WCI   5
$$

LMZ740>746-020300-
SOUTHERN LAKE MICHIGAN

STATION/POSITION TIME  SKY/WX   TEMP WIND        PRES    VSBY
                                AIR  DIR/SP/G
                 (UTC)          (F)  (DEG/KT/KT) (MB)    (MI)
HARRISON CRIB    0200            23  250/ 13/ 19   N/A
BURNHAM HARBOR   0200            22  270/  5/ 15   N/A
CALUMET HARBOR   0200            21  230/  6/ 11 1024.8F
BURNS HARBOR     NOT AVBL
MICHIGAN CITY    0200            21  210/ 13/ 16   N/A
$$

ABBREVIATIONS USED IN REMARKS
   TC - TEMPERATURE IN CELSIUS
  WCI - WIND CHILL INDEX
   HX - HEAT INDEX
  VSB - VISIBILITY
$$



USA.gov is the U.S. government's official web portal to all federal, state and local government web resources and services.